Terminal Aerodrome Forecast
Issued by NWS Pocatello, ID

Home | Current Version | Previous Version | Text Only | Print | Product List | Glossary On
Versions: 1 2 3 4 5 6 7 8 9 10 11 12 13
000
FTUS45 KPIH 310520
TAFIDA
TAF
KIDA 310520Z 3106/0106 VRB06KT P6SM FEW110
     FM311700 22010G20KT P6SM FEW090
     FM312000 23020G30KT P6SM BKN090
     FM010300 20010KT P6SM FEW100=

USA.gov is the U.S. government's official web portal to all federal, state and local government web resources and services.